Domov               UVHVVR             MKGP            O straneh              
ZDRAVSTVENO VARSTVO RASTLIN
  MREŽA AGROMET. POSTAJ
 ► PROGNOSTIČNA OBVESTILA
AGROMETEOROLOŠKI PODATKI -
ARSO
OBVLADOVANJE TVEGANJ ZARADI
NEUGODNIH VREMENSKIH RAZMER
  ► NARAVNE NESREČE
  ► SUŠA/MOČA
  ► NAMAKANJE
  ► ŽLED (gozdarstvo)
KARTOGRAFSKI PRIKAZI
SPLETNE POVEZAVE
PROJEKTI IN PUBLIKACIJE

AGROMETEOROLOŠKA MREŽA: VREMENSKE POSTAJE IN FENOLOŠKA OPAZOVANJA

Pregled podatkov za lokacijo Slom, meteorološka postaja 42786

Pregled senzorjev na lokaciji

ID Ime Zadnja
vrednost
Datum
zadnje
spremembe
Tip
senzorja
2126 Temperatura 2 m (°C) 2,26 °C 15.12.2017 19:30 50YA
2127 Relativna vlaga 2 m (% RH) 98,36 % RH 15.12.2017 19:30 50YA
2128 Omočenost lista (U) 2 U 15.12.2017 19:30 A730WET
2129 Padavine (mm) 1 mm 15.12.2017 19:30 Rain-O-Matic

Pregled podatkov zadnjih 24 ur

Zap.
št.
Datum in čas Slom
Omočenost
lista
Padavine Relativna
vlaga
2
m
Temperatura
2
m
0 15.12.2017 19:30 2 1 98,36 2,26
1 15.12.2017 19:00 2 1,2 98,27 2,2
2 15.12.2017 18:30 2 1 98,46 2,24
3 15.12.2017 18:00 3 1,2 97,9 2,48
4 15.12.2017 17:30 3 0,2 98,41 2,63
5 15.12.2017 17:00 3 0,6 99,2 2,76
6 15.12.2017 16:30 5 1,6 96,55 3,38
7 15.12.2017 16:00 4 0,4 97,06 3,8
8 15.12.2017 15:30 4 0,8 96,69 4,17
9 15.12.2017 15:00 6 1,4 95,58 4,88
10 15.12.2017 14:30 10 0,8 92,81 6,47
11 15.12.2017 14:00 10 0,2 92,24 8,39
12 15.12.2017 13:30 10 0,2 91,67 8,88
13 15.12.2017 13:00 10 0,2 88,97 9,5
14 15.12.2017 12:30 5 0 80,34 10,49
15 15.12.2017 12:00 9 0 76,13 11,24
16 15.12.2017 11:30 6 0 70,54 11,86
17 15.12.2017 11:00 6 0 73,25 11,8
18 15.12.2017 10:30 10 0 87,05 9,49
19 15.12.2017 10:00 10 0 94,89 7,63
20 15.12.2017 09:30 10 0 95,59 6,69
21 15.12.2017 09:00 10 0 94,82 6,48
22 15.12.2017 08:30 10 0 92,77 6,56
23 15.12.2017 08:00 10 0 91,36 6,59
24 15.12.2017 07:30 10 0 88,04 7,19
25 15.12.2017 07:00 10 0 81,81 8,65
26 15.12.2017 06:30 3 0 75,43 9,73
27 15.12.2017 06:00 2 0 73,88 10,06
28 15.12.2017 05:30 3 0 80,99 9,22
29 15.12.2017 05:00 7 0 90,82 7,69
30 15.12.2017 04:30 9 0 89,37 7,9
31 15.12.2017 04:00 10 0 82,37 9,03
32 15.12.2017 03:30 10 0,2 87,74 8,45
33 15.12.2017 03:00 10 0 100 5,59
34 15.12.2017 02:30 10 0 100 3,89
35 15.12.2017 02:00 10 0 100 4,24
36 15.12.2017 01:30 10 0 100 4,3
37 15.12.2017 01:00 10 0,2 100 4,03
38 15.12.2017 00:30 10 0 100 4,01
39 15.12.2017 00:00 10 0 100 4,1
40 14.12.2017 23:30 10 0 100 4,57
41 14.12.2017 23:00 10 0 99,98 4,9
42 14.12.2017 22:30 10 0 99,89 4,96
43 14.12.2017 22:00 10 0 99,74 5,05
44 14.12.2017 21:30 10 0 99,26 4,94
45 14.12.2017 21:00 10 0 98,8 5,13
© 2011 Ministrstvo za kmetijstvo, gozdarstvo in prehrano. Vse pravice pridržane.